Flag for United Kingdom Weather past 2 weeks in Kingston upon Hull, England, United Kingdom

Now
54 °F

Sprinkles. Passing clouds.


Feels Like: 49 °F
Forecast: 44 / 57 °F
Wind: 14 mph from South

Location: Humberside

Current Time: May 24, 2015 at 9:05:29 AM

Latest Report: May 24, 2015 at 8:20 AM


Visibility: N/A

Pressure: 30.04 "Hg

Humidity: 88%

Dew point: 50 °F

Location of Kingston upon HullLocation

Historic Weather in Kingston upon Hull — Graph

°F

Kingston upon Hull temperature yesterday

Maximum temperature yesterday: 61 °F (at 4:20 PM)
Minimum temperature yesterday: 50 °F (at 9:50 PM)
Average temperature yesterday: 55 °F

Past Weeks' High & Low Weather Summary

 TemperatureHumidityPressure
High70 °F (May 11, 2:20 PM)100% (May 10, 3:50 AM)30.33 "Hg (May 10, 3:50 AM)
Low37 °F (May 14, 4:20 AM)33% (May 11, 4:50 PM)29.45 "Hg (May 19, 1:20 AM)
Average53 °F70%30.02 "Hg
* Reported May 9 7:20 AM — May 24 7:50 AM, Kingston upon Hull, Weather by CustomWeather, © 2015

Note: Actual official high and low records may vary slightly from our data, if they occured in-between our weather recording intervals... More about our weather records

Advertising

Kingston upon Hull weather history for previous 24 hours

 ConditionsComfort  
Time TempWeatherWind HumidityBarometerVisibility
7:50 AM
Sun, May 24
52 °FSprinkles. Passing clouds.13 mph94%30.04 "HgN/A
7:20 AM52 °FSprinkles. Passing clouds.13 mph88%30.04 "HgN/A
6:50 AM52 °FSprinkles. Passing clouds.14 mph88%30.07 "HgN/A
6:20 AM52 °FSprinkles. Passing clouds.8 mph88%30.07 "HgN/A
5:50 AM50 °FPassing clouds.8 mph88%30.07 "HgN/A
5:20 AM48 °FCool.N/A94%30.07 "HgN/A
4:50 AM48 °FCool.N/A94%30.07 "HgN/A
4:20 AM50 °FCool.N/A88%30.09 "HgN/A
3:50 AM50 °FCool.N/A88%30.09 "HgN/A
3:20 AM50 °FCool.N/A88%30.09 "HgN/A
2:50 AM50 °FCool.N/A88%30.09 "HgN/A
2:20 AM50 °FCool.N/A88%30.12 "HgN/A
1:50 AM52 °FCool.N/A82%30.12 "HgN/A
1:20 AM52 °FCool.N/A82%30.12 "HgN/A
12:50 AM52 °FCool.13 mph82%30.15 "HgN/A
12:20 AM52 °FCool.N/A82%30.15 "HgN/A
11:50 PM
Sat, May 23
52 °FCool.N/A77%30.15 "HgN/A
11:20 PM50 °FCool.N/A82%30.18 "HgN/A
10:50 PM50 °FCool.N/A76%30.18 "HgN/A
10:20 PM50 °FCool.7 mph76%30.18 "HgN/A
9:50 PM50 °FCool.N/A76%30.21 "HgN/A
9:20 PM52 °FSunny.8 mph77%30.21 "Hg10 mi
8:50 PM54 °FSunny.7 mph72%30.21 "Hg10 mi
8:20 PM55 °FSunny.7 mph67%30.21 "Hg10 mi
7:50 PM59 °FSunny.9 mph63%30.21 "Hg10 mi
7:20 PM61 °FSunny.9 mph59%30.21 "Hg10 mi
6:50 PM61 °FPassing clouds.8 mph59%30.21 "HgN/A
6:20 PM61 °FPassing clouds.9 mph59%30.21 "HgN/A
5:50 PM61 °FScattered clouds.9 mph59%30.24 "HgN/A
5:20 PM61 °FScattered clouds.8 mph68%30.24 "HgN/A
4:50 PM61 °FScattered clouds.7 mph59%30.24 "HgN/A
4:20 PM61 °FScattered clouds.9 mph63%30.24 "HgN/A
3:50 PM59 °FScattered clouds.8 mph68%30.27 "HgN/A
3:20 PM59 °FScattered clouds.9 mph68%30.27 "HgN/A
2:50 PM59 °FScattered clouds.7 mph63%30.27 "HgN/A
2:20 PM59 °FScattered clouds.9 mph63%30.27 "HgN/A
1:50 PM57 °FScattered clouds.7 mph67%30.30 "HgN/A
1:20 PM59 °FScattered clouds.8 mph63%30.30 "HgN/A
12:50 PM59 °FScattered clouds.7 mph63%30.30 "HgN/A
12:20 PM59 °FBroken clouds.8 mph59%30.30 "HgN/A
11:50 AM57 °FBroken clouds.9 mph63%30.30 "HgN/A
11:20 AM57 °FBroken clouds.9 mph63%30.30 "HgN/A
10:50 AM57 °FBroken clouds.9 mph63%30.33 "HgN/A
10:20 AM55 °FMore clouds than sun.9 mph63%30.33 "HgN/A
9:50 AM54 °FScattered clouds.9 mph67%30.30 "HgN/A
9:20 AM54 °FScattered clouds.9 mph72%30.30 "HgN/A
Weather by CustomWeather, © 2015

See weather overviewHow to use our weather pages